Location: Kellogg
(38.0159°N, 90.0546°W)
Time: 03:42:10
(UTC+00:00)

SR - Pass Details

Date: 13 September 2024
Orbit: 577 x 855 km, 66.7° (Epoch: 10 October)

Event Time Altitude Azimuth Distance (km) Brightness Sun altitude
Rises 20:02:32 0° 232° (SW) 2,822 ? 44.9°
Reaches altitude 10° 20:05:00 10° 243° (WSW) 1,903 ? 44.5°
Maximum altitude 20:08:44 30° 305° (NW) 1,060 ? 44.0°
Drops below altitude 10° 20:12:28 10° 7° (N) 1,897 ? 43.4°
Sets 20:14:56 0° 19° (NNE) 2,812 ? 43.0°
